Wetterdaten: Sonntag, 21.06.2015
Datum Zeit Temp. A. Feuchte A. Luftdruck Regen Wind Richtung Richtung Sonnenschein ET UV Solar Taupunkt Windchill Windben Empfang
21.06.2015 00:00 9,6 C 88 % 1020,0 hPa 0,0 l/m 0,0 km/h (0 Bft) S 174 0 min 0,000 mm 0,0 UV-I 0 W/m 7,7 C 9,6 C 0,0 km/h (0 Bft) 0,00 %
21.06.2015 00:05 9,6 C 89 % 1020,0 hPa 0,0 l/m 0,7 km/h (0 Bft) W-SW 255 0 min 0,000 mm 0,0 UV-I 0 W/m 7,9 C 9,6 C 4,0 km/h (1 Bft) 0,00 %
21.06.2015 00:10 9,6 C 89 % 1020,1 hPa 0,0 l/m 2,2 km/h (1 Bft) W-SW 251 0 min 0,000 mm 0,0 UV-I 0 W/m 7,9 C 9,6 C 7,9 km/h (2 Bft) 0,00 %
21.06.2015 00:15 9,6 C 89 % 1020,0 hPa 0,0 l/m 0,4 km/h (0 Bft) O-SO 118 0 min 0,000 mm 0,0 UV-I 0 W/m 7,9 C 9,6 C 4,0 km/h (1 Bft) 0,00 %
21.06.2015 00:20 9,5 C 89 % 1019,9 hPa 0,0 l/m 0,0 km/h (0 Bft) N-NO 28 0 min 0,000 mm 0,0 UV-I 0 W/m 7,8 C 9,5 C 0,0 km/h (0 Bft) 0,00 %
21.06.2015 00:25 9,5 C 90 % 1019,9 hPa 0,0 l/m 0,4 km/h (0 Bft) SO 142 0 min 0,000 mm 0,0 UV-I 0 W/m 7,9 C 9,5 C 4,0 km/h (1 Bft) 0,00 %
21.06.2015 00:30 9,5 C 90 % 1019,9 hPa 0,0 l/m 0,0 km/h (0 Bft) O-SO 113 0 min 0,000 mm 0,0 UV-I 0 W/m 7,9 C 9,5 C 0,0 km/h (0 Bft) 0,00 %
21.06.2015 00:35 9,6 C 90 % 1020,0 hPa 0,0 l/m 0,4 km/h (0 Bft) W-SW 251 0 min 0,000 mm 0,0 UV-I 0 W/m 8,0 C 9,6 C 4,0 km/h (1 Bft) 0,00 %
21.06.2015 00:40 9,6 C 90 % 1020,0 hPa 0,0 l/m 2,9 km/h (1 Bft) W-SW 253 0 min 0,000 mm 0,0 UV-I 0 W/m 8,0 C 9,6 C 7,9 km/h (2 Bft) 0,00 %
21.06.2015 00:45 9,6 C 90 % 1020,1 hPa 0,0 l/m 7,2 km/h (2 Bft) W-SW 254 0 min 0,000 mm 0,0 UV-I 0 W/m 8,0 C 9,0 C 11,9 km/h (2 Bft) 0,00 %
21.06.2015 00:50 9,6 C 90 % 1020,0 hPa 0,0 l/m 0,7 km/h (0 Bft) W-SW 251 0 min 0,000 mm 0,0 UV-I 0 W/m 8,0 C 9,6 C 4,0 km/h (1 Bft) 0,00 %
21.06.2015 00:55 9,7 C 89 % 1019,9 hPa 0,0 l/m 0,0 km/h (0 Bft) O-SO 120 0 min 0,000 mm 0,0 UV-I 0 W/m 8,0 C 9,7 C 0,0 km/h (0 Bft) 0,00 %
21.06.2015 01:00 9,7 C 89 % 1019,9 hPa 0,0 l/m 4,0 km/h (1 Bft) S-SW 198 0 min 0,000 mm 0,0 UV-I 0 W/m 8,0 C 9,7 C 7,9 km/h (2 Bft) 0,00 %
21.06.2015 01:05 9,7 C 89 % 1019,8 hPa 0,0 l/m 8,3 km/h (2 Bft) W-SW 254 0 min 0,000 mm 0,0 UV-I 0 W/m 8,0 C 8,3 C 11,9 km/h (2 Bft) 0,00 %
21.06.2015 01:10 9,7 C 89 % 1019,7 hPa 0,0 l/m 0,4 km/h (0 Bft) SW 220 0 min 0,000 mm 0,0 UV-I 0 W/m 8,0 C 9,7 C 4,0 km/h (1 Bft) 0,00 %
21.06.2015 01:15 9,7 C 89 % 1019,6 hPa 0,0 l/m 9,0 km/h (2 Bft) W-SW 251 0 min 0,000 mm 0,0 UV-I 0 W/m 8,0 C 7,9 C 11,9 km/h (2 Bft) 0,00 %
21.06.2015 01:20 9,7 C 89 % 1019,7 hPa 0,0 l/m 0,7 km/h (0 Bft) W-NW 299 0 min 0,000 mm 0,0 UV-I 0 W/m 8,0 C 9,7 C 4,0 km/h (1 Bft) 0,00 %
21.06.2015 01:25 9,6 C 89 % 1019,9 hPa 0,0 l/m 2,2 km/h (1 Bft) NO 55 0 min 0,000 mm 0,0 UV-I 0 W/m 7,9 C 9,6 C 7,9 km/h (2 Bft) 0,00 %
21.06.2015 01:30 9,6 C 89 % 1019,8 hPa 0,0 l/m 0,0 km/h (0 Bft) O-SO 102 0 min 0,000 mm 0,0 UV-I 0 W/m 7,9 C 9,6 C 0,0 km/h (0 Bft) 0,00 %
21.06.2015 01:35 9,7 C 90 % 1019,6 hPa 0,0 l/m 0,0 km/h (0 Bft) S-SW 213 0 min 0,000 mm 0,0 UV-I 0 W/m 8,1 C 9,7 C 0,0 km/h (0 Bft) 0,00 %
21.06.2015 01:40 9,7 C 89 % 1019,6 hPa 0,0 l/m 1,4 km/h (1 Bft) W-SW 251 0 min 0,000 mm 0,0 UV-I 0 W/m 8,0 C 9,7 C 4,0 km/h (1 Bft) 0,00 %
21.06.2015 01:45 9,8 C 89 % 1019,6 hPa 0,0 l/m 0,7 km/h (0 Bft) O 89 0 min 0,000 mm 0,0 UV-I 0 W/m 8,1 C 9,8 C 4,0 km/h (1 Bft) 0,00 %
21.06.2015 01:50 9,8 C 89 % 1019,6 hPa 0,0 l/m 1,8 km/h (1 Bft) O-SO 121 0 min 0,000 mm 0,0 UV-I 0 W/m 8,1 C 9,8 C 4,0 km/h (1 Bft) 0,00 %
21.06.2015 01:55 9,8 C 89 % 1019,4 hPa 0,0 l/m 0,7 km/h (0 Bft) N 352 0 min 0,000 mm 0,0 UV-I 0 W/m 8,1 C 9,8 C 4,0 km/h (1 Bft) 0,00 %
21.06.2015 02:00 9,8 C 89 % 1019,6 hPa 0,0 l/m 1,8 km/h (1 Bft) SW 226 0 min 0,000 mm 0,0 UV-I 0 W/m 8,1 C 9,8 C 4,0 km/h (1 Bft) 0,00 %
21.06.2015 02:05 9,7 C 89 % 1019,6 hPa 0,0 l/m 4,3 km/h (1 Bft) W-SW 256 0 min 0,000 mm 0,0 UV-I 0 W/m 8,0 C 9,7 C 7,9 km/h (2 Bft) 0,00 %
21.06.2015 02:10 9,7 C 89 % 1019,4 hPa 0,0 l/m 0,4 km/h (0 Bft) SO 139 0 min 0,000 mm 0,0 UV-I 0 W/m 8,0 C 9,7 C 4,0 km/h (1 Bft) 0,00 %
21.06.2015 02:15 9,7 C 89 % 1019,4 hPa 0,0 l/m 2,2 km/h (1 Bft) W-SW 256 0 min 0,000 mm 0,0 UV-I 0 W/m 8,0 C 9,7 C 4,0 km/h (1 Bft) 0,00 %
21.06.2015 02:20 9,7 C 89 % 1019,5 hPa 0,0 l/m 4,3 km/h (1 Bft) W 260 0 min 0,000 mm 0,0 UV-I 0 W/m 8,0 C 9,7 C 7,9 km/h (2 Bft) 0,00 %
21.06.2015 02:25 9,7 C 89 % 1019,3 hPa 0,0 l/m 0,0 km/h (0 Bft) W-NW 295 0 min 0,000 mm 0,0 UV-I 0 W/m 8,0 C 9,7 C 0,0 km/h (0 Bft) 0,00 %
21.06.2015 02:30 9,7 C 89 % 1019,5 hPa 0,0 l/m 0,0 km/h (0 Bft) SO 142 0 min 0,000 mm 0,0 UV-I 0 W/m 8,0 C 9,7 C 0,0 km/h (0 Bft) 0,00 %
21.06.2015 02:35 9,7 C 89 % 1019,3 hPa 0,0 l/m 1,8 km/h (1 Bft) W-SW 251 0 min 0,000 mm 0,0 UV-I 0 W/m 8,0 C 9,7 C 4,0 km/h (1 Bft) 0,00 %
21.06.2015 02:40 9,7 C 90 % 1019,3 hPa 0,0 l/m 0,0 km/h (0 Bft) S 185 0 min 0,000 mm 0,0 UV-I 0 W/m 8,1 C 9,7 C 0,0 km/h (0 Bft) 0,00 %
21.06.2015 02:45 9,6 C 90 % 1019,4 hPa 0,0 l/m 0,0 km/h (0 Bft) SO 142 0 min 0,000 mm 0,0 UV-I 0 W/m 8,0 C 9,6 C 0,0 km/h (0 Bft) 0,00 %
21.06.2015 02:50 9,6 C 90 % 1019,4 hPa 0,0 l/m 0,4 km/h (0 Bft) O 80 0 min 0,000 mm 0,0 UV-I 0 W/m 8,0 C 9,6 C 4,0 km/h (1 Bft) 0,00 %
21.06.2015 02:55 9,6 C 90 % 1019,5 hPa 0,0 l/m 0,0 km/h (0 Bft) S 170 0 min 0,000 mm 0,0 UV-I 0 W/m 8,0 C 9,6 C 0,0 km/h (0 Bft) 0,00 %
21.06.2015 03:00 9,6 C 90 % 1019,5 hPa 0,0 l/m 0,7 km/h (0 Bft) NO 44 0 min 0,000 mm 0,0 UV-I 0 W/m 8,0 C 9,6 C 4,0 km/h (1 Bft) 0,00 %
21.06.2015 03:05 9,6 C 90 % 1019,5 hPa 0,0 l/m 0,0 km/h (0 Bft) S-SW 202 0 min 0,000 mm 0,0 UV-I 0 W/m 8,0 C 9,6 C 0,0 km/h (0 Bft) 0,00 %
21.06.2015 03:10 9,6 C 91 % 1019,4 hPa 0,0 l/m 1,8 km/h (1 Bft) W-SW 255 0 min 0,000 mm 0,0 UV-I 0 W/m 8,2 C 9,6 C 4,0 km/h (1 Bft) 0,00 %
21.06.2015 03:15 9,5 C 91 % 1019,5 hPa 0,0 l/m 0,0 km/h (0 Bft) N-NW 335 0 min 0,000 mm 0,0 UV-I 0 W/m 8,1 C 9,5 C 0,0 km/h (0 Bft) 0,00 %
21.06.2015 03:20 9,5 C 91 % 1019,5 hPa 0,0 l/m 0,7 km/h (0 Bft) W-NW 284 0 min 0,000 mm 0,0 UV-I 0 W/m 8,1 C 9,5 C 4,0 km/h (1 Bft) 0,00 %
21.06.2015 03:25 9,5 C 91 % 1019,5 hPa 0,0 l/m 4,3 km/h (1 Bft) W-SW 256 0 min 0,000 mm 0,0 UV-I 0 W/m 8,1 C 9,5 C 7,9 km/h (2 Bft) 0,00 %
21.06.2015 03:30 9,6 C 90 % 1019,4 hPa 0,0 l/m 0,0 km/h (0 Bft) O-SO 111 0 min 0,000 mm 0,0 UV-I 0 W/m 8,0 C 9,6 C 0,0 km/h (0 Bft) 0,00 %
21.06.2015 03:35 9,6 C 90 % 1019,3 hPa 0,0 l/m 0,7 km/h (0 Bft) W-SW 255 0 min 0,000 mm 0,0 UV-I 0 W/m 8,0 C 9,6 C 4,0 km/h (1 Bft) 0,00 %
21.06.2015 03:40 9,6 C 90 % 1019,4 hPa 0,0 l/m 1,8 km/h (1 Bft) S-SW 211 0 min 0,000 mm 0,0 UV-I 0 W/m 8,0 C 9,6 C 4,0 km/h (1 Bft) 0,00 %
21.06.2015 03:45 9,6 C 90 % 1019,4 hPa 0,0 l/m 0,0 km/h (0 Bft) W-SW 238 0 min 0,000 mm 0,0 UV-I 0 W/m 8,0 C 9,6 C 0,0 km/h (0 Bft) 0,00 %
21.06.2015 03:50 9,6 C 90 % 1019,3 hPa 0,0 l/m 0,7 km/h (0 Bft) SW 223 0 min 0,000 mm 0,0 UV-I 0 W/m 8,0 C 9,6 C 4,0 km/h (1 Bft) 0,00 %
21.06.2015 03:55 9,6 C 90 % 1019,3 hPa 0,0 l/m 0,0 km/h (0 Bft) W-SW 251 0 min 0,000 mm 0,0 UV-I 0 W/m 8,0 C 9,6 C 0,0 km/h (0 Bft) 0,00 %
21.06.2015 04:00 9,6 C 90 % 1019,2 hPa 0,0 l/m 0,4 km/h (0 Bft) W-SW 252 0 min 0,000 mm 0,0 UV-I 0 W/m 8,0 C 9,6 C 4,0 km/h (1 Bft) 0,00 %
21.06.2015 04:05 9,6 C 90 % 1019,3 hPa 0,0 l/m 0,0 km/h (0 Bft) SW 230 0 min 0,000 mm 0,0 UV-I 0 W/m 8,0 C 9,6 C 0,0 km/h (0 Bft) 0,00 %
21.06.2015 04:10 9,6 C 90 % 1019,4 hPa 0,0 l/m 0,0 km/h (0 Bft) SW 214 0 min 0,000 mm 0,0 UV-I 0 W/m 8,0 C 9,6 C 0,0 km/h (0 Bft) 0,00 %
21.06.2015 04:15 9,6 C 90 % 1019,4 hPa 0,0 l/m 0,0 km/h (0 Bft) SW 221 0 min 0,000 mm 0,0 UV-I 0 W/m 8,0 C 9,6 C 0,0 km/h (0 Bft) 0,00 %
21.06.2015 04:20 9,6 C 91 % 1019,4 hPa 0,0 l/m 0,0 km/h (0 Bft) S 172 0 min 0,000 mm 0,0 UV-I 0 W/m 8,2 C 9,6 C 0,0 km/h (0 Bft) 0,00 %
21.06.2015 04:25 9,6 C 91 % 1019,3 hPa 0,0 l/m 0,0 km/h (0 Bft) S 178 0 min 0,000 mm 0,0 UV-I 0 W/m 8,2 C 9,6 C 0,0 km/h (0 Bft) 0,00 %
21.06.2015 04:30 9,6 C 91 % 1019,3 hPa 0,0 l/m 0,0 km/h (0 Bft) SW 226 0 min 0,000 mm 0,0 UV-I 0 W/m 8,2 C 9,6 C 0,0 km/h (0 Bft) 0,00 %
21.06.2015 04:35 9,6 C 91 % 1019,3 hPa 0,0 l/m 0,0 km/h (0 Bft) SW 226 0 min 0,000 mm 0,0 UV-I 0 W/m 8,2 C 9,6 C 0,0 km/h (0 Bft) 0,00 %
21.06.2015 04:40 9,5 C 91 % 1019,3 hPa 0,0 l/m 0,0 km/h (0 Bft) S-SW 200 0 min 0,000 mm 0,0 UV-I 0 W/m 8,1 C 9,5 C 0,0 km/h (0 Bft) 0,00 %
21.06.2015 04:45 9,5 C 91 % 1019,1 hPa 0,0 l/m 0,0 km/h (0 Bft) S 181 0 min 0,000 mm 0,0 UV-I 0 W/m 8,1 C 9,5 C 0,0 km/h (0 Bft) 0,00 %
21.06.2015 04:50 9,5 C 91 % 1019,3 hPa 0,0 l/m 0,0 km/h (0 Bft) S 182 0 min 0,000 mm 0,0 UV-I 0 W/m 8,1 C 9,5 C 0,0 km/h (0 Bft) 0,00 %
21.06.2015 04:55 9,5 C 91 % 1019,2 hPa 0,0 l/m 0,0 km/h (0 Bft) S-SW 196 0 min 0,000 mm 0,0 UV-I 0 W/m 8,1 C 9,5 C 0,0 km/h (0 Bft) 0,00 %
21.06.2015 05:00 9,5 C 92 % 1019,2 hPa 0,0 l/m 0,0 km/h (0 Bft) S-SW 196 0 min 0,000 mm 0,0 UV-I 0 W/m 8,3 C 9,5 C 0,0 km/h (0 Bft) 0,00 %
21.06.2015 05:05 9,5 C 92 % 1019,5 hPa 0,0 l/m 0,0 km/h (0 Bft) S-SW 196 0 min 0,000 mm 0,0 UV-I 0 W/m 8,3 C 9,5 C 0,0 km/h (0 Bft) 0,00 %
21.06.2015 05:10 9,4 C 92 % 1019,3 hPa 0,0 l/m 0,0 km/h (0 Bft) SW 229 0 min 0,000 mm 0,0 UV-I 0 W/m 8,2 C 9,4 C 0,0 km/h (0 Bft) 0,00 %
21.06.2015 05:15 9,4 C 92 % 1019,3 hPa 0,0 l/m 0,0 km/h (0 Bft) SW 229 0 min 0,000 mm 0,0 UV-I 0 W/m 8,2 C 9,4 C 0,0 km/h (0 Bft) 0,00 %
21.06.2015 05:20 9,4 C 92 % 1019,4 hPa 0,0 l/m 0,0 km/h (0 Bft) SW 229 0 min 0,000 mm 0,0 UV-I 0 W/m 8,2 C 9,4 C 0,0 km/h (0 Bft) 0,00 %
21.06.2015 05:25 9,4 C 92 % 1019,4 hPa 0,0 l/m 0,0 km/h (0 Bft) S 180 0 min 0,000 mm 0,0 UV-I 0 W/m 8,2 C 9,4 C 0,0 km/h (0 Bft) 0,00 %
21.06.2015 05:30 9,4 C 92 % 1019,4 hPa 0,0 l/m 0,0 km/h (0 Bft) SO 125 0 min 0,000 mm 0,0 UV-I 1 W/m 8,2 C 9,4 C 0,0 km/h (0 Bft) 0,00 %
21.06.2015 05:35 9,4 C 92 % 1019,4 hPa 0,0 l/m 0,0 km/h (0 Bft) SO 140 0 min 0,000 mm 0,0 UV-I 3 W/m 8,2 C 9,4 C 0,0 km/h (0 Bft) 0,00 %
21.06.2015 05:40 9,4 C 92 % 1019,6 hPa 0,0 l/m 0,0 km/h (0 Bft) S-SO 164 0 min 0,000 mm 0,0 UV-I 4 W/m 8,2 C 9,4 C 0,0 km/h (0 Bft) 0,00 %
21.06.2015 05:45 9,5 C 92 % 1019,2 hPa 0,0 l/m 0,0 km/h (0 Bft) O-SO 104 0 min 0,000 mm 0,0 UV-I 6 W/m 8,3 C 9,5 C 0,0 km/h (0 Bft) 0,00 %
21.06.2015 05:50 9,5 C 92 % 1019,5 hPa 0,0 l/m 0,0 km/h (0 Bft) NW 307 0 min 0,000 mm 0,0 UV-I 8 W/m 8,3 C 9,5 C 0,0 km/h (0 Bft) 0,00 %
21.06.2015 05:55 9,5 C 92 % 1019,3 hPa 0,0 l/m 0,4 km/h (0 Bft) SW 214 0 min 0,000 mm 0,0 UV-I 17 W/m 8,3 C 9,5 C 4,0 km/h (1 Bft) 0,00 %
21.06.2015 06:00 9,6 C 92 % 1019,4 hPa 0,0 l/m 0,4 km/h (0 Bft) S 176 0 min 0,000 mm 0,0 UV-I 24 W/m 8,4 C 9,6 C 4,0 km/h (1 Bft) 0,00 %
21.06.2015 06:05 9,6 C 91 % 1019,5 hPa 0,0 l/m 0,0 km/h (0 Bft) O 86 0 min 0,000 mm 0,0 UV-I 29 W/m 8,2 C 9,6 C 0,0 km/h (0 Bft) 0,00 %
21.06.2015 06:10 9,7 C 91 % 1019,4 hPa 0,0 l/m 0,0 km/h (0 Bft) S-SO 168 0 min 0,000 mm 0,0 UV-I 35 W/m 8,3 C 9,7 C 0,0 km/h (0 Bft) 0,00 %
21.06.2015 06:15 9,8 C 91 % 1019,5 hPa 0,0 l/m 6,5 km/h (2 Bft) W-SW 255 0 min 0,000 mm 0,0 UV-I 41 W/m 8,4 C 9,8 C 11,9 km/h (2 Bft) 0,00 %
21.06.2015 06:20 9,8 C 91 % 1019,6 hPa 0,0 l/m 2,2 km/h (1 Bft) W-SW 252 0 min 0,000 mm 0,0 UV-I 48 W/m 8,4 C 9,8 C 4,0 km/h (1 Bft) 0,00 %
21.06.2015 06:25 9,9 C 91 % 1019,6 hPa 0,0 l/m 2,9 km/h (1 Bft) W 279 0 min 0,000 mm 0,0 UV-I 53 W/m 8,5 C 9,9 C 4,0 km/h (1 Bft) 0,00 %
21.06.2015 06:30 10,0 C 90 % 1019,4 hPa 0,0 l/m 3,2 km/h (1 Bft) W-SW 256 0 min 0,000 mm 0,0 UV-I 59 W/m 8,4 C 10,0 C 4,0 km/h (1 Bft) 0,00 %
21.06.2015 06:35 10,0 C 90 % 1019,5 hPa 0,0 l/m 0,0 km/h (0 Bft) S-SW 199 0 min 0,000 mm 0,0 UV-I 64 W/m 8,4 C 10,0 C 0,0 km/h (0 Bft) 0,00 %
21.06.2015 06:40 10,1 C 88 % 1019,5 hPa 0,0 l/m 0,0 km/h (0 Bft) O 95 0 min 0,000 mm 1,0 UV-I 70 W/m 8,2 C 10,1 C 0,0 km/h (0 Bft) 0,00 %
21.06.2015 06:45 10,2 C 87 % 1019,3 hPa 0,0 l/m 5,8 km/h (2 Bft) N-NW 343 0 min 0,000 mm 1,0 UV-I 78 W/m 8,1 C 10,2 C 7,9 km/h (2 Bft) 0,00 %
21.06.2015 06:50 10,3 C 87 % 1019,5 hPa 0,0 l/m 0,7 km/h (0 Bft) W-NW 291 0 min 0,000 mm 1,0 UV-I 86 W/m 8,2 C 10,3 C 4,0 km/h (1 Bft) 0,00 %
21.06.2015 06:55 10,4 C 86 % 1019,4 hPa 0,0 l/m 7,2 km/h (2 Bft) SW 233 0 min 0,000 mm 1,0 UV-I 96 W/m 8,2 C 9,8 C 11,9 km/h (2 Bft) 0,00 %
21.06.2015 07:00 10,5 C 85 % 1019,3 hPa 0,0 l/m 0,4 km/h (0 Bft) SO 132 0 min 0,000 mm 1,0 UV-I 105 W/m 8,1 C 10,5 C 4,0 km/h (1 Bft) 0,00 %
21.06.2015 07:05 10,6 C 85 % 1019,4 hPa 0,0 l/m 0,0 km/h (0 Bft) SW 232 0 min 0,000 mm 1,0 UV-I 108 W/m 8,2 C 10,6 C 0,0 km/h (0 Bft) 0,00 %
21.06.2015 07:10 10,8 C 84 % 1019,6 hPa 0,0 l/m 0,7 km/h (0 Bft) W-SW 256 0 min 0,000 mm 1,0 UV-I 109 W/m 8,2 C 10,8 C 4,0 km/h (1 Bft) 0,00 %
21.06.2015 07:15 10,9 C 84 % 1019,4 hPa 0,0 l/m 0,4 km/h (0 Bft) SW 231 0 min 0,000 mm 1,0 UV-I 117 W/m 8,3 C 10,9 C 4,0 km/h (1 Bft) 0,00 %
21.06.2015 07:20 11,0 C 84 % 1019,4 hPa 0,0 l/m 0,0 km/h (0 Bft) S-SW 197 0 min 0,000 mm 1,0 UV-I 128 W/m 8,4 C 11,0 C 0,0 km/h (0 Bft) 0,00 %
21.06.2015 07:25 11,1 C 82 % 1019,5 hPa 0,0 l/m 0,0 km/h (0 Bft) N 354 0 min 0,000 mm 1,0 UV-I 132 W/m 8,1 C 11,1 C 0,0 km/h (0 Bft) 0,00 %
21.06.2015 07:30 11,2 C 82 % 1019,4 hPa 0,0 l/m 0,4 km/h (0 Bft) W-SW 249 0 min 0,000 mm 1,0 UV-I 133 W/m 8,2 C 11,2 C 4,0 km/h (1 Bft) 0,00 %
21.06.2015 07:35 11,3 C 82 % 1019,3 hPa 0,0 l/m 0,0 km/h (0 Bft) S 186 0 min 0,000 mm 1,0 UV-I 130 W/m 8,3 C 11,3 C 0,0 km/h (0 Bft) 0,00 %
21.06.2015 07:40 11,3 C 81 % 1019,2 hPa 0,0 l/m 2,9 km/h (1 Bft) W-NW 291 0 min 0,000 mm 1,0 UV-I 130 W/m 8,2 C 11,3 C 4,0 km/h (1 Bft) 0,00 %
21.06.2015 07:45 11,3 C 81 % 1019,3 hPa 0,0 l/m 1,4 km/h (1 Bft) S 170 0 min 0,000 mm 1,0 UV-I 131 W/m 8,2 C 11,3 C 4,0 km/h (1 Bft) 0,00 %
21.06.2015 07:50 11,3 C 81 % 1019,5 hPa 0,0 l/m 3,2 km/h (1 Bft) SW 222 0 min 0,000 mm 1,0 UV-I 132 W/m 8,2 C 11,3 C 7,9 km/h (2 Bft) 0,00 %
21.06.2015 07:55 11,3 C 81 % 1019,4 hPa 0,0 l/m 1,8 km/h (1 Bft) W-SW 253 0 min 0,000 mm 1,0 UV-I 139 W/m 8,2 C 11,3 C 4,0 km/h (1 Bft) 0,00 %
21.06.2015 08:00 11,4 C 81 % 1019,4 hPa 0,0 l/m 0,0 km/h (0 Bft) W-SW 256 0 min 0,000 mm 1,0 UV-I 143 W/m 8,3 C 11,4 C 0,0 km/h (0 Bft) 0,00 %
21.06.2015 08:05 11,4 C 80 % 1019,5 hPa 0,0 l/m 0,4 km/h (0 Bft) W-NW 302 0 min 0,000 mm 1,0 UV-I 148 W/m 8,1 C 11,4 C 4,0 km/h (1 Bft) 0,00 %
21.06.2015 08:10 11,5 C 80 % 1019,4 hPa 0,0 l/m 0,0 km/h (0 Bft) S-SO 161 0 min 0,000 mm 1,0 UV-I 160 W/m 8,2 C 11,5 C 0,0 km/h (0 Bft) 0,00 %
21.06.2015 08:15 11,7 C 80 % 1019,4 hPa 0,0 l/m 0,7 km/h (0 Bft) SO 146 0 min 0,000 mm 1,0 UV-I 181 W/m 8,4 C 11,7 C 4,0 km/h (1 Bft) 0,00 %
21.06.2015 08:20 12,0 C 79 % 1019,5 hPa 0,0 l/m 4,7 km/h (1 Bft) W-SW 256 0 min 0,000 mm 1,0 UV-I 203 W/m 8,5 C 12,0 C 7,9 km/h (2 Bft) 0,00 %
21.06.2015 08:25 12,2 C 79 % 1019,7 hPa 0,0 l/m 2,9 km/h (1 Bft) SW 228 0 min 0,000 mm 1,0 UV-I 233 W/m 8,7 C 12,2 C 4,0 km/h (1 Bft) 0,00 %
21.06.2015 08:30 12,4 C 78 % 1019,5 hPa 0,0 l/m 0,4 km/h (0 Bft) SO 138 0 min 0,000 mm 1,0 UV-I 225 W/m 8,7 C 12,4 C 4,0 km/h (1 Bft) 0,00 %
21.06.2015 08:35 12,7 C 76 % 1019,5 hPa 0,0 l/m 0,0 km/h (0 Bft) S 179 0 min 0,000 mm 1,0 UV-I 224 W/m 8,6 C 12,7 C 0,0 km/h (0 Bft) 0,00 %
21.06.2015 08:40 12,8 C 76 % 1019,2 hPa 0,0 l/m 4,3 km/h (1 Bft) W-SW 255 0 min 0,000 mm 1,0 UV-I 224 W/m 8,7 C 12,8 C 7,9 km/h (2 Bft) 0,00 %
21.06.2015 08:45 12,9 C 76 % 1019,3 hPa 0,0 l/m 1,8 km/h (1 Bft) W 274 0 min 0,000 mm 1,0 UV-I 223 W/m 8,8 C 12,9 C 4,0 km/h (1 Bft) 0,00 %
21.06.2015 08:50 12,8 C 75 % 1019,3 hPa 0,0 l/m 2,9 km/h (1 Bft) W-SW 253 0 min 0,000 mm 1,0 UV-I 219 W/m 8,5 C 12,8 C 4,0 km/h (1 Bft) 0,00 %
21.06.2015 08:55 12,6 C 75 % 1019,4 hPa 0,0 l/m 1,4 km/h (1 Bft) W-SW 244 0 min 0,000 mm 1,0 UV-I 222 W/m 8,3 C 12,6 C 4,0 km/h (1 Bft) 0,00 %
21.06.2015 09:00 12,6 C 75 % 1019,5 hPa 0,0 l/m 0,0 km/h (0 Bft) S-SW 211 0 min 0,000 mm 1,0 UV-I 236 W/m 8,3 C 12,6 C 0,0 km/h (0 Bft) 0,00 %
21.06.2015 09:05 12,7 C 76 % 1019,2 hPa 0,0 l/m 0,0 km/h (0 Bft) S 191 0 min 0,000 mm 1,0 UV-I 253 W/m 8,6 C 12,7 C 0,0 km/h (0 Bft) 0,00 %
21.06.2015 09:10 12,9 C 75 % 1019,4 hPa 0,0 l/m 0,0 km/h (0 Bft) SO 135 0 min 0,000 mm 2,0 UV-I 282 W/m 8,6 C 12,9 C 0,0 km/h (0 Bft) 0,00 %
21.06.2015 09:15 13,2 C 73 % 1019,3 hPa 0,0 l/m 0,0 km/h (0 Bft) S 181 0 min 0,000 mm 2,0 UV-I 292 W/m 8,5 C 13,2 C 0,0 km/h (0 Bft) 0,00 %
21.06.2015 09:20 13,4 C 73 % 1019,0 hPa 0,0 l/m 0,0 km/h (0 Bft) NO 51 0 min 0,000 mm 1,0 UV-I 233 W/m 8,7 C 13,4 C 0,0 km/h (0 Bft) 0,00 %
21.06.2015 09:25 13,7 C 71 % 1019,1 hPa 0,0 l/m 0,7 km/h (0 Bft) SO 131 0 min 0,000 mm 1,0 UV-I 244 W/m 8,5 C 13,7 C 4,0 km/h (1 Bft) 0,00 %
21.06.2015 09:30 13,6 C 72 % 1019,2 hPa 0,0 l/m 0,4 km/h (0 Bft) S-SW 204 0 min 0,000 mm 1,0 UV-I 250 W/m 8,6 C 13,6 C 4,0 km/h (1 Bft) 0,00 %
21.06.2015 09:35 13,5 C 73 % 1019,1 hPa 0,0 l/m 2,9 km/h (1 Bft) W-SW 240 0 min 0,000 mm 1,0 UV-I 244 W/m 8,8 C 13,5 C 4,0 km/h (1 Bft) 0,00 %
21.06.2015 09:40 13,5 C 72 % 1018,9 hPa 0,0 l/m 0,0 km/h (0 Bft) W-SW 240 0 min 0,000 mm 1,0 UV-I 250 W/m 8,6 C 13,5 C 0,0 km/h (0 Bft) 0,00 %
21.06.2015 09:45 13,5 C 72 % 1018,9 hPa 0,0 l/m 0,4 km/h (0 Bft) SW 233 0 min 0,000 mm 1,0 UV-I 275 W/m 8,6 C 13,5 C 4,0 km/h (1 Bft) 0,00 %
21.06.2015 09:50 13,6 C 71 % 1018,9 hPa 0,0 l/m 0,0 km/h (0 Bft) S-SW 211 0 min 0,000 mm 2,0 UV-I 302 W/m 8,4 C 13,6 C 0,0 km/h (0 Bft) 0,00 %
21.06.2015 09:55 14,0 C 70 % 1018,8 hPa 0,0 l/m 0,0 km/h (0 Bft) S 184 0 min 0,000 mm 2,0 UV-I 323 W/m 8,6 C 14,0 C 0,0 km/h (0 Bft) 0,00 %
21.06.2015 10:00 14,4 C 69 % 1018,8 hPa 0,0 l/m 4,0 km/h (1 Bft) W-SW 251 0 min 0,000 mm 2,0 UV-I 357 W/m 8,8 C 14,4 C 7,9 km/h (2 Bft) 0,00 %
21.06.2015 10:05 14,5 C 66 % 1018,7 hPa 0,0 l/m 0,4 km/h (0 Bft) SW 219 5 min 0,000 mm 2,0 UV-I 408 W/m 8,2 C 14,5 C 4,0 km/h (1 Bft) 0,00 %
21.06.2015 10:10 14,4 C 67 % 1018,5 hPa 0,0 l/m 0,4 km/h (0 Bft) W-NW 296 5 min 0,000 mm 2,0 UV-I 445 W/m 8,4 C 14,4 C 4,0 km/h (1 Bft) 0,00 %
21.06.2015 10:15 14,5 C 65 % 1018,5 hPa 0,0 l/m 0,7 km/h (0 Bft) NW 304 0 min 0,000 mm 3,0 UV-I 393 W/m 8,0 C 14,5 C 4,0 km/h (1 Bft) 0,00 %
21.06.2015 10:20 14,9 C 65 % 1018,5 hPa 0,0 l/m 0,0 km/h (0 Bft) SW 234 5 min 0,000 mm 2,0 UV-I 484 W/m 8,4 C 14,9 C 0,0 km/h (0 Bft) 0,00 %
21.06.2015 10:25 14,8 C 68 % 1018,4 hPa 0,0 l/m 2,2 km/h (1 Bft) S-SW 203 0 min 0,000 mm 3,0 UV-I 339 W/m 9,0 C 14,8 C 4,0 km/h (1 Bft) 0,00 %
21.06.2015 10:30 15,0 C 64 % 1018,4 hPa 0,0 l/m 0,0 km/h (0 Bft) W-SW 254 0 min 0,000 mm 2,0 UV-I 287 W/m 8,2 C 15,0 C 0,0 km/h (0 Bft) 0,00 %
21.06.2015 10:35 15,2 C 63 % 1018,6 hPa 0,0 l/m 0,4 km/h (0 Bft) W-NW 289 0 min 0,000 mm 2,0 UV-I 246 W/m 8,2 C 15,2 C 4,0 km/h (1 Bft) 0,00 %
21.06.2015 10:40 14,9 C 65 % 1018,3 hPa 0,0 l/m 0,0 km/h (0 Bft) SW 226 0 min 0,000 mm 2,0 UV-I 224 W/m 8,4 C 14,9 C 0,0 km/h (0 Bft) 0,00 %
21.06.2015 10:45 14,6 C 66 % 1018,4 hPa 0,0 l/m 0,0 km/h (0 Bft) SW 216 0 min 0,000 mm 1,0 UV-I 172 W/m 8,3 C 14,6 C 0,0 km/h (0 Bft) 0,00 %
21.06.2015 10:50 14,4 C 67 % 1018,4 hPa 0,0 l/m 0,0 km/h (0 Bft) SW 214 0 min 0,000 mm 1,0 UV-I 150 W/m 8,4 C 14,4 C 0,0 km/h (0 Bft) 0,00 %
21.06.2015 10:55 14,1 C 68 % 1018,5 hPa 0,0 l/m 0,4 km/h (0 Bft) SW 220 0 min 0,000 mm 1,0 UV-I 103 W/m 8,3 C 14,1 C 4,0 km/h (1 Bft) 0,00 %
21.06.2015 11:00 13,8 C 68 % 1018,3 hPa 0,0 l/m 1,8 km/h (1 Bft) NO 34 0 min 0,000 mm 1,0 UV-I 81 W/m 8,0 C 13,8 C 4,0 km/h (1 Bft) 0,00 %
21.06.2015 11:05 13,7 C 71 % 1018,6 hPa 0,0 l/m 0,0 km/h (0 Bft) S-SO 165 0 min 0,000 mm 0,0 UV-I 197 W/m 8,5 C 13,7 C 0,0 km/h (0 Bft) 0,00 %
21.06.2015 11:10 13,6 C 67 % 1018,6 hPa 0,0 l/m 0,0 km/h (0 Bft) O-SO 104 0 min 0,000 mm 1,0 UV-I 112 W/m 7,6 C 13,6 C 0,0 km/h (0 Bft) 0,00 %
21.06.2015 11:15 13,6 C 68 % 1018,5 hPa 0,0 l/m 0,0 km/h (0 Bft) S 173 0 min 0,000 mm 1,0 UV-I 129 W/m 7,8 C 13,6 C 0,0 km/h (0 Bft) 0,00 %
21.06.2015 11:20 13,7 C 68 % 1018,5 hPa 0,0 l/m 2,2 km/h (1 Bft) W-NW 301 0 min 0,000 mm 1,0 UV-I 254 W/m 7,9 C 13,7 C 4,0 km/h (1 Bft) 0,00 %
21.06.2015 11:25 13,7 C 67 % 1018,6 hPa 0,0 l/m 0,0 km/h (0 Bft) W-SW 255 0 min 0,000 mm 1,0 UV-I 393 W/m 7,7 C 13,7 C 0,0 km/h (0 Bft) 0,00 %
21.06.2015 11:30 13,6 C 70 % 1018,4 hPa 0,0 l/m 0,4 km/h (0 Bft) O 97 0 min 0,000 mm 2,0 UV-I 412 W/m 8,2 C 13,6 C 4,0 km/h (1 Bft) 0,00 %
21.06.2015 11:35 13,9 C 69 % 1018,4 hPa 0,0 l/m 1,4 km/h (1 Bft) O-NO 67 0 min 0,000 mm 3,0 UV-I 420 W/m 8,3 C 13,9 C 4,0 km/h (1 Bft) 0,00 %
21.06.2015 11:40 14,4 C 67 % 1018,3 hPa 0,0 l/m 0,0 km/h (0 Bft) O-NO 62 0 min 0,000 mm 3,0 UV-I 380 W/m 8,4 C 14,4 C 0,0 km/h (0 Bft) 0,00 %
21.06.2015 11:45 14,8 C 64 % 1018,3 hPa 0,0 l/m 0,4 km/h (0 Bft) W-NW 292 0 min 0,000 mm 3,0 UV-I 322 W/m 8,1 C 14,8 C 4,0 km/h (1 Bft) 0,00 %
21.06.2015 11:50 15,2 C 64 % 1018,1 hPa 0,0 l/m 0,0 km/h (0 Bft) O-SO 122 0 min 0,000 mm 2,0 UV-I 331 W/m 8,4 C 15,2 C 0,0 km/h (0 Bft) 0,00 %
21.06.2015 11:55 15,5 C 63 % 1018,1 hPa 0,0 l/m 0,0 km/h (0 Bft) S-SW 202 0 min 0,000 mm 2,0 UV-I 296 W/m 8,5 C 15,5 C 0,0 km/h (0 Bft) 0,00 %
21.06.2015 12:00 15,9 C 62 % 1018,0 hPa 0,0 l/m 1,4 km/h (1 Bft) W-SW 255 0 min 0,000 mm 2,0 UV-I 261 W/m 8,6 C 15,9 C 4,0 km/h (1 Bft) 0,00 %
21.06.2015 12:05 15,9 C 62 % 1018,0 hPa 0,0 l/m 0,0 km/h (0 Bft) SW 220 0 min 0,000 mm 1,0 UV-I 368 W/m 8,6 C 15,9 C 0,0 km/h (0 Bft) 0,00 %
21.06.2015 12:10 15,4 C 62 % 1018,1 hPa 0,0 l/m 0,0 km/h (0 Bft) O-NO 62 5 min 0,000 mm 3,0 UV-I 911 W/m 8,2 C 15,4 C 0,0 km/h (0 Bft) 0,00 %
21.06.2015 12:15 15,3 C 61 % 1018,1 hPa 0,0 l/m 2,2 km/h (1 Bft) W-NW 285 0 min 0,000 mm 3,0 UV-I 293 W/m 7,8 C 15,3 C 7,9 km/h (2 Bft) 0,00 %
21.06.2015 12:20 15,7 C 59 % 1017,9 hPa 0,0 l/m 0,0 km/h (0 Bft) S-SW 200 0 min 0,000 mm 3,0 UV-I 247 W/m 7,7 C 15,7 C 0,0 km/h (0 Bft) 0,00 %
21.06.2015 12:25 16,3 C 59 % 1018,0 hPa 0,0 l/m 1,8 km/h (1 Bft) SW 228 0 min 0,000 mm 4,0 UV-I 327 W/m 8,3 C 16,3 C 4,0 km/h (1 Bft) 0,00 %
21.06.2015 12:30 16,3 C 60 % 1018,1 hPa 0,0 l/m 3,2 km/h (1 Bft) O-NO 74 5 min 0,000 mm 2,0 UV-I 978 W/m 8,5 C 16,3 C 4,0 km/h (1 Bft) 0,00 %
21.06.2015 12:35 15,5 C 63 % 1018,0 hPa 0,0 l/m 0,7 km/h (0 Bft) S-SW 195 0 min 0,000 mm 5,0 UV-I 469 W/m 8,5 C 15,5 C 4,0 km/h (1 Bft) 0,00 %
21.06.2015 12:40 15,4 C 61 % 1018,1 hPa 0,0 l/m 0,4 km/h (0 Bft) O-NO 63 0 min 0,000 mm 7,0 UV-I 267 W/m 7,9 C 15,4 C 4,0 km/h (1 Bft) 0,00 %
21.06.2015 12:45 16,2 C 58 % 1017,9 hPa 0,0 l/m 9,0 km/h (2 Bft) SW 214 0 min 0,000 mm 2,0 UV-I 207 W/m 7,9 C 14,9 C 11,9 km/h (2 Bft) 0,00 %
21.06.2015 12:50 16,0 C 58 % 1017,7 hPa 0,0 l/m 2,9 km/h (1 Bft) NW 314 0 min 0,000 mm 1,0 UV-I 186 W/m 7,7 C 16,0 C 4,0 km/h (1 Bft) 0,00 %
21.06.2015 12:55 15,3 C 61 % 1018,0 hPa 0,0 l/m 1,4 km/h (1 Bft) W-NW 295 0 min 0,000 mm 1,0 UV-I 219 W/m 7,8 C 15,3 C 4,0 km/h (1 Bft) 0,00 %
21.06.2015 13:00 14,7 C 62 % 1017,9 hPa 0,0 l/m 2,2 km/h (1 Bft) W-SW 253 0 min 0,000 mm 1,0 UV-I 286 W/m 7,5 C 14,7 C 4,0 km/h (1 Bft) 0,00 %
21.06.2015 13:05 14,3 C 65 % 1018,2 hPa 0,0 l/m 2,2 km/h (1 Bft) S-SW 196 0 min 0,000 mm 1,0 UV-I 366 W/m 7,8 C 14,3 C 4,0 km/h (1 Bft) 0,00 %
21.06.2015 13:10 14,0 C 64 % 1018,1 hPa 0,0 l/m 0,4 km/h (0 Bft) N-NW 328 5 min 0,000 mm 2,0 UV-I 833 W/m 7,3 C 14,0 C 4,0 km/h (1 Bft) 0,00 %
21.06.2015 13:15 14,1 C 65 % 1018,1 hPa 0,0 l/m 0,0 km/h (0 Bft) SW 217 5 min 0,000 mm 3,0 UV-I 1007 W/m 7,6 C 14,1 C 0,0 km/h (0 Bft) 0,00 %
21.06.2015 13:20 14,8 C 58 % 1017,8 hPa 0,0 l/m 1,4 km/h (1 Bft) W-NW 283 5 min 0,000 mm 6,0 UV-I 670 W/m 6,6 C 14,8 C 4,0 km/h (1 Bft) 0,00 %
21.06.2015 13:25 15,8 C 57 % 1017,5 hPa 0,0 l/m 0,0 km/h (0 Bft) O-SO 120 0 min 0,000 mm 3,0 UV-I 488 W/m 7,3 C 15,8 C 0,0 km/h (0 Bft) 0,00 %
21.06.2015 13:30 16,6 C 53 % 1017,5 hPa 0,0 l/m 4,0 km/h (1 Bft) W 277 0 min 0,000 mm 3,0 UV-I 464 W/m 7,0 C 16,6 C 7,9 km/h (2 Bft) 0,00 %
21.06.2015 13:35 16,8 C 56 % 1017,6 hPa 0,0 l/m 9,4 km/h (2 Bft) W-NW 285 5 min 0,000 mm 3,0 UV-I 611 W/m 8,0 C 15,4 C 11,9 km/h (2 Bft) 0,00 %
21.06.2015 13:40 16,7 C 55 % 1017,6 hPa 0,0 l/m 2,2 km/h (1 Bft) S 185 5 min 0,000 mm 3,0 UV-I 648 W/m 7,6 C 16,7 C 4,0 km/h (1 Bft) 0,00 %
21.06.2015 13:45 17,0 C 57 % 1017,4 hPa 0,0 l/m 1,4 km/h (1 Bft) N-NO 25 0 min 0,000 mm 4,0 UV-I 348 W/m 8,4 C 17,0 C 4,0 km/h (1 Bft) 0,00 %
21.06.2015 13:50 17,5 C 56 % 1017,3 hPa 0,0 l/m 0,0 km/h (0 Bft) SO 136 0 min 0,000 mm 3,0 UV-I 270 W/m 8,6 C 17,5 C 0,0 km/h (0 Bft) 0,00 %
21.06.2015 13:55 17,9 C 54 % 1017,1 hPa 0,0 l/m 0,0 km/h (0 Bft) S 183 0 min 0,000 mm 3,0 UV-I 197 W/m 8,5 C 17,9 C 0,0 km/h (0 Bft) 0,00 %
21.06.2015 14:00 17,8 C 55 % 1017,1 hPa 0,0 l/m 0,4 km/h (0 Bft) O-NO 71 0 min 0,000 mm 2,0 UV-I 133 W/m 8,6 C 17,8 C 4,0 km/h (1 Bft) 0,00 %
21.06.2015 14:05 17,6 C 56 % 1017,1 hPa 0,0 l/m 5,8 km/h (2 Bft) W-SW 238 0 min 0,000 mm 1,0 UV-I 97 W/m 8,7 C 17,6 C 7,9 km/h (2 Bft) 0,00 %
21.06.2015 14:10 17,1 C 58 % 1017,3 hPa 0,0 l/m 0,4 km/h (0 Bft) NW 322 0 min 0,000 mm 1,0 UV-I 106 W/m 8,8 C 17,1 C 4,0 km/h (1 Bft) 0,00 %
21.06.2015 14:15 16,4 C 60 % 1017,2 hPa 0,0 l/m 0,0 km/h (0 Bft) O-NO 66 0 min 0,000 mm 0,0 UV-I 169 W/m 8,6 C 16,4 C 0,0 km/h (0 Bft) 0,00 %
21.06.2015 14:20 16,0 C 61 % 1017,3 hPa 0,0 l/m 0,0 km/h (0 Bft) O 84 0 min 0,000 mm 1,0 UV-I 239 W/m 8,5 C 16,0 C 0,0 km/h (0 Bft) 0,00 %
21.06.2015 14:25 15,6 C 61 % 1017,3 hPa 0,0 l/m 0,7 km/h (0 Bft) W 277 0 min 0,000 mm 1,0 UV-I 348 W/m 8,1 C 15,6 C 4,0 km/h (1 Bft) 0,00 %
21.06.2015 14:30 15,5 C 60 % 1017,3 hPa 0,0 l/m 0,7 km/h (0 Bft) W-SW 254 0 min 0,000 mm 1,0 UV-I 329 W/m 7,8 C 15,5 C 4,0 km/h (1 Bft) 0,00 %
21.06.2015 14:35 15,7 C 59 % 1017,1 hPa 0,0 l/m 1,4 km/h (1 Bft) W-SW 252 0 min 0,000 mm 2,0 UV-I 396 W/m 7,7 C 15,7 C 4,0 km/h (1 Bft) 0,00 %
21.06.2015 14:40 16,1 C 57 % 1017,2 hPa 0,0 l/m 4,3 km/h (1 Bft) W-SW 240 0 min 0,000 mm 2,0 UV-I 397 W/m 7,6 C 16,1 C 11,9 km/h (2 Bft) 0,00 %
21.06.2015 14:45 16,4 C 55 % 1017,0 hPa 0,0 l/m 0,0 km/h (0 Bft) NO 41 0 min 0,000 mm 2,0 UV-I 218 W/m 7,3 C 16,4 C 0,0 km/h (0 Bft) 0,00 %
21.06.2015 14:50 16,8 C 53 % 1017,1 hPa 0,0 l/m 0,4 km/h (0 Bft) O 94 0 min 0,000 mm 3,0 UV-I 136 W/m 7,2 C 16,8 C 4,0 km/h (1 Bft) 0,00 %
21.06.2015 14:55 17,1 C 52 % 1016,9 hPa 0,0 l/m 9,7 km/h (2 Bft) W 275 0 min 0,000 mm 1,0 UV-I 167 W/m 7,2 C 15,6 C 11,9 km/h (2 Bft) 0,00 %
21.06.2015 15:00 16,7 C 57 % 1017,2 hPa 0,0 l/m 3,2 km/h (1 Bft) N 353 0 min 0,000 mm 1,0 UV-I 227 W/m 8,1 C 16,7 C 4,0 km/h (1 Bft) 0,00 %
21.06.2015 15:05 15,6 C 62 % 1017,2 hPa 0,0 l/m 7,9 km/h (2 Bft) W-SW 256 0 min 0,000 mm 1,0 UV-I 222 W/m 8,3 C 14,8 C 11,9 km/h (2 Bft) 0,00 %
21.06.2015 15:10 14,7 C 65 % 1017,7 hPa 0,0 l/m 0,0 km/h (0 Bft) W-SW 239 0 min 0,000 mm 2,0 UV-I 185 W/m 8,2 C 14,7 C 0,0 km/h (0 Bft) 0,00 %
21.06.2015 15:15 14,6 C 62 % 1017,6 hPa 0,0 l/m 0,0 km/h (0 Bft) S-SW 200 0 min 0,000 mm 1,0 UV-I 188 W/m 7,4 C 14,6 C 0,0 km/h (0 Bft) 0,00 %
21.06.2015 15:20 14,9 C 60 % 1017,3 hPa 0,0 l/m 0,0 km/h (0 Bft) W-SW 255 0 min 0,000 mm 1,0 UV-I 196 W/m 7,2 C 14,9 C 0,0 km/h (0 Bft) 0,00 %
21.06.2015 15:25 15,2 C 60 % 1017,2 hPa 0,0 l/m 1,8 km/h (1 Bft) SW 217 0 min 0,000 mm 1,0 UV-I 140 W/m 7,5 C 15,2 C 4,0 km/h (1 Bft) 0,00 %
21.06.2015 15:30 15,4 C 59 % 1017,2 hPa 0,0 l/m 0,0 km/h (0 Bft) SW 214 0 min 0,000 mm 1,0 UV-I 115 W/m 7,4 C 15,4 C 0,0 km/h (0 Bft) 0,00 %
21.06.2015 15:35 15,5 C 60 % 1017,5 hPa 0,0 l/m 2,9 km/h (1 Bft) W-NW 296 0 min 0,000 mm 1,0 UV-I 91 W/m 7,8 C 15,5 C 4,0 km/h (1 Bft) 0,00 %
21.06.2015 15:40 15,6 C 61 % 1017,2 hPa 0,0 l/m 0,0 km/h (0 Bft) O-SO 114 0 min 0,000 mm 1,0 UV-I 44 W/m 8,1 C 15,6 C 0,0 km/h (0 Bft) 0,00 %
21.06.2015 15:45 15,5 C 61 % 1017,4 hPa 0,0 l/m 0,0 km/h (0 Bft) S-SW 197 0 min 0,000 mm 1,0 UV-I 70 W/m 8,0 C 15,5 C 0,0 km/h (0 Bft) 0,00 %
21.06.2015 15:50 15,4 C 63 % 1017,3 hPa 0,0 l/m 0,0 km/h (0 Bft) W-SW 252 0 min 0,000 mm 0,0 UV-I 131 W/m 8,4 C 15,4 C 0,0 km/h (0 Bft) 0,00 %
21.06.2015 15:55 15,1 C 64 % 1017,5 hPa 0,0 l/m 0,7 km/h (0 Bft) NW 305 0 min 0,000 mm 0,0 UV-I 143 W/m 8,3 C 15,1 C 4,0 km/h (1 Bft) 0,00 %
21.06.2015 16:00 14,8 C 64 % 1017,5 hPa 0,0 l/m 1,4 km/h (1 Bft) W-SW 251 0 min 0,000 mm 1,0 UV-I 152 W/m 8,1 C 14,8 C 4,0 km/h (1 Bft) 0,00 %
21.06.2015 16:05 14,8 C 65 % 1017,5 hPa 0,0 l/m 0,0 km/h (0 Bft) S 177 0 min 0,000 mm 1,0 UV-I 155 W/m 8,3 C 14,8 C 0,0 km/h (0 Bft) 0,00 %
21.06.2015 16:10 14,8 C 65 % 1017,6 hPa 0,0 l/m 4,3 km/h (1 Bft) W-NW 283 0 min 0,000 mm 1,0 UV-I 201 W/m 8,3 C 14,8 C 11,9 km/h (2 Bft) 0,00 %
21.06.2015 16:15 15,0 C 63 % 1017,4 hPa 0,0 l/m 1,8 km/h (1 Bft) W-SW 252 0 min 0,000 mm 1,0 UV-I 191 W/m 8,0 C 15,0 C 4,0 km/h (1 Bft) 0,00 %
21.06.2015 16:20 15,0 C 62 % 1017,5 hPa 0,0 l/m 2,9 km/h (1 Bft) S-SW 212 0 min 0,000 mm 1,0 UV-I 185 W/m 7,8 C 15,0 C 7,9 km/h (2 Bft) 0,00 %
21.06.2015 16:25 15,1 C 61 % 1017,3 hPa 0,0 l/m 2,2 km/h (1 Bft) SW 226 0 min 0,000 mm 1,0 UV-I 169 W/m 7,6 C 15,1 C 7,9 km/h (2 Bft) 0,00 %
21.06.2015 16:30 15,2 C 61 % 1017,4 hPa 0,0 l/m 3,2 km/h (1 Bft) W-SW 254 0 min 0,000 mm 1,0 UV-I 171 W/m 7,7 C 15,2 C 7,9 km/h (2 Bft) 0,00 %
21.06.2015 16:35 15,2 C 61 % 1017,4 hPa 0,0 l/m 1,8 km/h (1 Bft) W-SW 249 0 min 0,000 mm 1,0 UV-I 157 W/m 7,7 C 15,2 C 4,0 km/h (1 Bft) 0,00 %
21.06.2015 16:40 15,2 C 61 % 1017,4 hPa 0,0 l/m 0,0 km/h (0 Bft) O-SO 119 0 min 0,000 mm 1,0 UV-I 161 W/m 7,7 C 15,2 C 0,0 km/h (0 Bft) 0,00 %
21.06.2015 16:45 15,3 C 61 % 1017,1 hPa 0,0 l/m 4,3 km/h (1 Bft) W-SW 256 0 min 0,000 mm 1,0 UV-I 171 W/m 7,8 C 15,3 C 7,9 km/h (2 Bft) 0,00 %
21.06.2015 16:50 15,3 C 62 % 1017,4 hPa 0,0 l/m 0,4 km/h (0 Bft) W-SW 256 0 min 0,000 mm 1,0 UV-I 158 W/m 8,1 C 15,3 C 4,0 km/h (1 Bft) 0,00 %
21.06.2015 16:55 15,2 C 60 % 1017,1 hPa 0,0 l/m 1,4 km/h (1 Bft) W-SW 251 0 min 0,000 mm 1,0 UV-I 144 W/m 7,5 C 15,2 C 4,0 km/h (1 Bft) 0,00 %
21.06.2015 17:00 15,2 C 61 % 1017,2 hPa 0,0 l/m 1,8 km/h (1 Bft) W-SW 245 0 min 0,000 mm 1,0 UV-I 138 W/m 7,7 C 15,2 C 4,0 km/h (1 Bft) 0,00 %
21.06.2015 17:05 15,2 C 62 % 1017,2 hPa 0,0 l/m 0,0 km/h (0 Bft) S 178 0 min 0,000 mm 1,0 UV-I 175 W/m 8,0 C 15,2 C 0,0 km/h (0 Bft) 0,00 %
21.06.2015 17:10 15,2 C 61 % 1017,3 hPa 0,0 l/m 0,0 km/h (0 Bft) O 93 0 min 0,000 mm 1,0 UV-I 167 W/m 7,7 C 15,2 C 0,0 km/h (0 Bft) 0,00 %
21.06.2015 17:15 15,3 C 62 % 1017,2 hPa 0,0 l/m 1,8 km/h (1 Bft) N-NW 341 0 min 0,000 mm 1,0 UV-I 164 W/m 8,1 C 15,3 C 4,0 km/h (1 Bft) 0,00 %
21.06.2015 17:20 15,3 C 62 % 1017,2 hPa 0,0 l/m 0,0 km/h (0 Bft) SO 135 0 min 0,000 mm 1,0 UV-I 219 W/m 8,1 C 15,3 C 0,0 km/h (0 Bft) 0,00 %
21.06.2015 17:25 15,4 C 62 % 1017,1 hPa 0,0 l/m 0,0 km/h (0 Bft) S 188 5 min 0,000 mm 1,0 UV-I 316 W/m 8,2 C 15,4 C 0,0 km/h (0 Bft) 0,00 %
21.06.2015 17:30 15,5 C 62 % 1016,9 hPa 0,0 l/m 1,8 km/h (1 Bft) W-SW 253 0 min 0,000 mm 1,0 UV-I 215 W/m 8,3 C 15,5 C 4,0 km/h (1 Bft) 0,00 %
21.06.2015 17:35 15,6 C 60 % 1016,8 hPa 0,0 l/m 4,3 km/h (1 Bft) SW 236 0 min 0,000 mm 2,0 UV-I 207 W/m 7,9 C 15,6 C 7,9 km/h (2 Bft) 0,00 %
21.06.2015 17:40 15,8 C 56 % 1016,9 hPa 0,0 l/m 1,8 km/h (1 Bft) W 268 0 min 0,000 mm 1,0 UV-I 263 W/m 7,0 C 15,8 C 4,0 km/h (1 Bft) 0,00 %
21.06.2015 17:45 16,1 C 55 % 1017,1 hPa 0,0 l/m 0,0 km/h (0 Bft) NO 42 0 min 0,000 mm 1,0 UV-I 257 W/m 7,1 C 16,1 C 0,0 km/h (0 Bft) 0,00 %
21.06.2015 17:50 16,2 C 57 % 1016,8 hPa 0,0 l/m 0,4 km/h (0 Bft) W-SW 249 0 min 0,000 mm 1,0 UV-I 203 W/m 7,7 C 16,2 C 4,0 km/h (1 Bft) 0,00 %
21.06.2015 17:55 16,2 C 56 % 1016,7 hPa 0,0 l/m 2,2 km/h (1 Bft) W-SW 256 0 min 0,000 mm 1,0 UV-I 171 W/m 7,4 C 16,2 C 4,0 km/h (1 Bft) 0,00 %
21.06.2015 18:00 16,3 C 58 % 1016,8 hPa 0,0 l/m 0,0 km/h (0 Bft) O-SO 113 0 min 0,000 mm 1,0 UV-I 117 W/m 8,0 C 16,3 C 0,0 km/h (0 Bft) 0,00 %
21.06.2015 18:05 16,5 C 59 % 1016,7 hPa 0,0 l/m 1,8 km/h (1 Bft) W-SW 255 0 min 0,000 mm 1,0 UV-I 83 W/m 8,5 C 16,5 C 4,0 km/h (1 Bft) 0,00 %
21.06.2015 18:10 16,6 C 58 % 1016,7 hPa 0,0 l/m 0,0 km/h (0 Bft) S-SO 161 5 min 0,000 mm 1,0 UV-I 244 W/m 8,3 C 16,6 C 0,0 km/h (0 Bft) 0,00 %
21.06.2015 18:15 16,4 C 60 % 1016,6 hPa 0,0 l/m 0,4 km/h (0 Bft) W-SW 244 0 min 0,000 mm 0,0 UV-I 204 W/m 8,6 C 16,4 C 4,0 km/h (1 Bft) 0,00 %
21.06.2015 18:20 16,1 C 61 % 1016,7 hPa 0,0 l/m 0,0 km/h (0 Bft) S 173 0 min 0,000 mm 0,0 UV-I 185 W/m 8,6 C 16,1 C 0,0 km/h (0 Bft) 0,00 %
21.06.2015 18:25 15,8 C 62 % 1016,6 hPa 0,0 l/m 0,4 km/h (0 Bft) SW 236 0 min 0,000 mm 1,0 UV-I 214 W/m 8,5 C 15,8 C 4,0 km/h (1 Bft) 0,00 %
21.06.2015 18:30 15,8 C 62 % 1016,6 hPa 0,0 l/m 0,4 km/h (0 Bft) S 189 0 min 0,000 mm 1,0 UV-I 150 W/m 8,5 C 15,8 C 4,0 km/h (1 Bft) 0,00 %
21.06.2015 18:35 16,0 C 62 % 1016,7 hPa 0,0 l/m 0,4 km/h (0 Bft) S 184 0 min 0,000 mm 1,0 UV-I 133 W/m 8,7 C 16,0 C 4,0 km/h (1 Bft) 0,00 %
21.06.2015 18:40 15,9 C 63 % 1016,6 hPa 0,0 l/m 0,0 km/h (0 Bft) O 82 0 min 0,000 mm 1,0 UV-I 117 W/m 8,9 C 15,9 C 0,0 km/h (0 Bft) 0,00 %
21.06.2015 18:45 15,7 C 63 % 1016,6 hPa 0,0 l/m 2,2 km/h (1 Bft) S-SW 199 0 min 0,000 mm 1,0 UV-I 85 W/m 8,7 C 15,7 C 4,0 km/h (1 Bft) 0,00 %
21.06.2015 18:50 15,6 C 63 % 1016,7 hPa 0,0 l/m 0,0 km/h (0 Bft) SW 219 0 min 0,000 mm 1,0 UV-I 66 W/m 8,6 C 15,6 C 0,0 km/h (0 Bft) 0,00 %
21.06.2015 18:55 15,5 C 63 % 1016,6 hPa 0,0 l/m 4,3 km/h (1 Bft) W-SW 253 0 min 0,000 mm 1,0 UV-I 59 W/m 8,5 C 15,5 C 7,9 km/h (2 Bft) 0,00 %
21.06.2015 19:00 15,4 C 64 % 1016,7 hPa 0,0 l/m 0,4 km/h (0 Bft) W-SW 255 0 min 0,000 mm 1,0 UV-I 76 W/m 8,6 C 15,4 C 4,0 km/h (1 Bft) 0,00 %
21.06.2015 19:05 15,2 C 65 % 1016,7 hPa 0,0 l/m 6,5 km/h (2 Bft) SW 223 0 min 0,000 mm 1,0 UV-I 113 W/m 8,7 C 15,2 C 11,9 km/h (2 Bft) 0,00 %
21.06.2015 19:10 14,9 C 66 % 1016,7 hPa 0,0 l/m 0,0 km/h (0 Bft) W-SW 254 0 min 0,000 mm 0,0 UV-I 101 W/m 8,6 C 14,9 C 0,0 km/h (0 Bft) 0,00 %
21.06.2015 19:15 14,9 C 67 % 1016,6 hPa 0,0 l/m 0,0 km/h (0 Bft) S 174 0 min 0,000 mm 1,0 UV-I 84 W/m 8,8 C 14,9 C 0,0 km/h (0 Bft) 0,00 %
21.06.2015 19:20 14,9 C 68 % 1016,8 hPa 0,0 l/m 0,0 km/h (0 Bft) S-SO 163 0 min 0,000 mm 1,0 UV-I 66 W/m 9,0 C 14,9 C 0,0 km/h (0 Bft) 0,00 %
21.06.2015 19:25 15,0 C 67 % 1016,7 hPa 0,0 l/m 0,0 km/h (0 Bft) SW 216 0 min 0,000 mm 1,0 UV-I 57 W/m 8,9 C 15,0 C 0,0 km/h (0 Bft) 0,00 %
21.06.2015 19:30 15,1 C 68 % 1016,7 hPa 0,0 l/m 0,0 km/h (0 Bft) S 190 0 min 0,000 mm 0,0 UV-I 72 W/m 9,2 C 15,1 C 0,0 km/h (0 Bft) 0,00 %
21.06.2015 19:35 15,1 C 67 % 1016,8 hPa 0,0 l/m 0,0 km/h (0 Bft) S 183 0 min 0,000 mm 0,0 UV-I 68 W/m 9,0 C 15,1 C 0,0 km/h (0 Bft) 0,00 %
21.06.2015 19:40 15,0 C 68 % 1016,6 hPa 0,0 l/m 0,0 km/h (0 Bft) S 177 0 min 0,000 mm 0,0 UV-I 68 W/m 9,1 C 15,0 C 0,0 km/h (0 Bft) 0,00 %
21.06.2015 19:45 14,9 C 69 % 1016,7 hPa 0,0 l/m 0,0 km/h (0 Bft) S-SO 151 0 min 0,000 mm 0,0 UV-I 51 W/m 9,3 C 14,9 C 0,0 km/h (0 Bft) 0,00 %
21.06.2015 19:50 14,9 C 68 % 1016,8 hPa 0,0 l/m 0,0 km/h (0 Bft) S 174 0 min 0,000 mm 0,0 UV-I 54 W/m 9,0 C 14,9 C 0,0 km/h (0 Bft) 0,00 %
21.06.2015 19:55 15,0 C 69 % 1016,6 hPa 0,0 l/m 0,0 km/h (0 Bft) S 181 0 min 0,000 mm 0,0 UV-I 35 W/m 9,4 C 15,0 C 0,0 km/h (0 Bft) 0,00 %
21.06.2015 20:00 15,0 C 70 % 1016,8 hPa 0,0 l/m 0,0 km/h (0 Bft) S 179 0 min 0,000 mm 0,0 UV-I 27 W/m 9,6 C 15,0 C 0,0 km/h (0 Bft) 0,00 %
21.06.2015 20:05 15,0 C 70 % 1016,8 hPa 0,0 l/m 0,0 km/h (0 Bft) S 178 0 min 0,000 mm 0,0 UV-I 20 W/m 9,6 C 15,0 C 0,0 km/h (0 Bft) 0,00 %
21.06.2015 20:10 15,0 C 70 % 1016,7 hPa 0,0 l/m 0,0 km/h (0 Bft) S 188 0 min 0,000 mm 0,0 UV-I 11 W/m 9,6 C 15,0 C 0,0 km/h (0 Bft) 0,00 %
21.06.2015 20:15 14,9 C 71 % 1016,7 hPa 0,0 l/m 0,0 km/h (0 Bft) S 182 0 min 0,000 mm 0,0 UV-I 7 W/m 9,7 C 14,9 C 0,0 km/h (0 Bft) 0,00 %
21.06.2015 20:20 14,8 C 71 % 1016,6 hPa 0,0 l/m 0,0 km/h (0 Bft) S 177 0 min 0,000 mm 0,0 UV-I 5 W/m 9,6 C 14,8 C 0,0 km/h (0 Bft) 0,00 %
21.06.2015 20:25 14,7 C 73 % 1016,8 hPa 0,0 l/m 0,0 km/h (0 Bft) SO 136 0 min 0,000 mm 0,0 UV-I 4 W/m 9,9 C 14,7 C 0,0 km/h (0 Bft) 0,00 %
21.06.2015 20:30 14,5 C 73 % 1016,8 hPa 0,0 l/m 0,0 km/h (0 Bft) S 188 0 min 0,000 mm 0,0 UV-I 5 W/m 9,7 C 14,5 C 0,0 km/h (0 Bft) 0,00 %
21.06.2015 20:35 14,3 C 75 % 1016,8 hPa 0,0 l/m 0,0 km/h (0 Bft) S-SO 153 0 min 0,000 mm 0,0 UV-I 2 W/m 9,9 C 14,3 C 0,0 km/h (0 Bft) 0,00 %
21.06.2015 20:40 14,1 C 75 % 1016,9 hPa 0,0 l/m 0,0 km/h (0 Bft) S 177 0 min 0,000 mm 0,0 UV-I 1 W/m 9,7 C 14,1 C 0,0 km/h (0 Bft) 0,00 %
21.06.2015 20:45 14,0 C 75 % 1016,8 hPa 0,0 l/m 0,0 km/h (0 Bft) S-SO 165 0 min 0,000 mm 0,0 UV-I 0 W/m 9,6 C 14,0 C 0,0 km/h (0 Bft) 0,00 %
21.06.2015 20:50 13,9 C 76 % 1016,9 hPa 0,0 l/m 0,0 km/h (0 Bft) SO 127 0 min 0,000 mm 0,0 UV-I 0 W/m 9,7 C 13,9 C 0,0 km/h (0 Bft) 0,00 %
21.06.2015 20:55 13,8 C 77 % 1016,8 hPa 0,0 l/m 0,0 km/h (0 Bft) S 172 0 min 0,000 mm 0,0 UV-I 0 W/m 9,8 C 13,8 C 0,0 km/h (0 Bft) 0,00 %
21.06.2015 21:00 13,7 C 78 % 1017,0 hPa 0,0 l/m 0,0 km/h (0 Bft) SO 135 0 min 0,000 mm 0,0 UV-I 0 W/m 9,9 C 13,7 C 0,0 km/h (0 Bft) 0,00 %
21.06.2015 21:05 13,5 C 78 % 1016,8 hPa 0,0 l/m 0,0 km/h (0 Bft) SO 137 0 min 0,000 mm 0,0 UV-I 0 W/m 9,7 C 13,5 C 0,0 km/h (0 Bft) 0,00 %
21.06.2015 21:10 13,4 C 80 % 1017,1 hPa 0,0 l/m 0,0 km/h (0 Bft) SO 137 0 min 0,000 mm 0,0 UV-I 0 W/m 10,0 C 13,4 C 0,0 km/h (0 Bft) 0,00 %
21.06.2015 21:15 13,3 C 80 % 1017,1 hPa 0,0 l/m 0,0 km/h (0 Bft) SO 137 0 min 0,000 mm 0,0 UV-I 0 W/m 9,9 C 13,3 C 0,0 km/h (0 Bft) 0,00 %
21.06.2015 21:20 13,2 C 81 % 1017,0 hPa 0,0 l/m 0,0 km/h (0 Bft) SO 146 0 min 0,000 mm 0,0 UV-I 0 W/m 10,0 C 13,2 C 0,0 km/h (0 Bft) 0,00 %
21.06.2015 21:25 12,9 C 82 % 1017,0 hPa 0,0 l/m 0,0 km/h (0 Bft) S-SO 147 0 min 0,000 mm 0,0 UV-I 0 W/m 9,9 C 12,9 C 0,0 km/h (0 Bft) 0,00 %
21.06.2015 21:30 12,6 C 82 % 1017,1 hPa 0,0 l/m 0,0 km/h (0 Bft) SO 146 0 min 0,000 mm 0,0 UV-I 0 W/m 9,6 C 12,6 C 0,0 km/h (0 Bft) 0,00 %
21.06.2015 21:35 12,3 C 82 % 1017,0 hPa 0,0 l/m 0,0 km/h (0 Bft) SO 131 0 min 0,000 mm 0,0 UV-I 0 W/m 9,3 C 12,3 C 0,0 km/h (0 Bft) 0,00 %
21.06.2015 21:40 12,2 C 82 % 1017,0 hPa 0,0 l/m 0,0 km/h (0 Bft) SO 138 0 min 0,000 mm 0,0 UV-I 0 W/m 9,2 C 12,2 C 0,0 km/h (0 Bft) 0,00 %
21.06.2015 21:45 12,1 C 83 % 1017,4 hPa 0,0 l/m 0,0 km/h (0 Bft) SO 135 0 min 0,000 mm 0,0 UV-I 0 W/m 9,3 C 12,1 C 0,0 km/h (0 Bft) 0,00 %
21.06.2015 21:50 12,0 C 84 % 1017,4 hPa 0,0 l/m 0,0 km/h (0 Bft) SO 135 0 min 0,000 mm 0,0 UV-I 0 W/m 9,4 C 12,0 C 0,0 km/h (0 Bft) 0,00 %
21.06.2015 21:55 11,9 C 84 % 1017,4 hPa 0,0 l/m 0,0 km/h (0 Bft) SO 135 0 min 0,000 mm 0,0 UV-I 0 W/m 9,3 C 11,9 C 0,0 km/h (0 Bft) 0,00 %
21.06.2015 22:00 11,8 C 85 % 1017,3 hPa 0,0 l/m 0,0 km/h (0 Bft) SO 135 0 min 0,000 mm 0,0 UV-I 0 W/m 9,4 C 11,8 C 0,0 km/h (0 Bft) 0,00 %
21.06.2015 22:05 11,8 C 85 % 1017,1 hPa 0,0 l/m 0,0 km/h (0 Bft) SO 135 0 min 0,000 mm 0,0 UV-I 0 W/m 9,4 C 11,8 C 0,0 km/h (0 Bft) 0,00 %
21.06.2015 22:10 11,7 C 85 % 1017,3 hPa 0,0 l/m 0,0 km/h (0 Bft) SO 135 0 min 0,000 mm 0,0 UV-I 0 W/m 9,3 C 11,7 C 0,0 km/h (0 Bft) 0,00 %
21.06.2015 22:15 11,6 C 85 % 1017,4 hPa 0,0 l/m 0,0 km/h (0 Bft) SO 135 0 min 0,000 mm 0,0 UV-I 0 W/m 9,2 C 11,6 C 0,0 km/h (0 Bft) 0,00 %
21.06.2015 22:20 11,6 C 85 % 1017,3 hPa 0,0 l/m 0,0 km/h (0 Bft) SO 135 0 min 0,000 mm 0,0 UV-I 0 W/m 9,2 C 11,6 C 0,0 km/h (0 Bft) 0,00 %
21.06.2015 22:25 11,5 C 85 % 1017,1 hPa 0,0 l/m 0,0 km/h (0 Bft) SO 135 0 min 0,000 mm 0,0 UV-I 0 W/m 9,1 C 11,5 C 0,0 km/h (0 Bft) 0,00 %
21.06.2015 22:30 11,5 C 86 % 1017,1 hPa 0,0 l/m 0,0 km/h (0 Bft) SO 135 0 min 0,000 mm 0,0 UV-I 0 W/m 9,2 C 11,5 C 0,0 km/h (0 Bft) 0,00 %
21.06.2015 22:35 11,4 C 86 % 1017,5 hPa 0,0 l/m 0,0 km/h (0 Bft) SO 135 0 min 0,000 mm 0,0 UV-I 0 W/m 9,1 C 11,4 C 0,0 km/h (0 Bft) 0,00 %
21.06.2015 22:40 11,4 C 85 % 1017,4 hPa 0,0 l/m 0,0 km/h (0 Bft) SO 135 0 min 0,000 mm 0,0 UV-I 0 W/m 9,0 C 11,4 C 0,0 km/h (0 Bft) 0,00 %
21.06.2015 22:45 11,3 C 87 % 1017,3 hPa 0,0 l/m 0,0 km/h (0 Bft) SO 135 0 min 0,000 mm 0,0 UV-I 0 W/m 9,2 C 11,3 C 0,0 km/h (0 Bft) 0,00 %
21.06.2015 22:50 11,3 C 87 % 1017,2 hPa 0,0 l/m 0,0 km/h (0 Bft) SO 135 0 min 0,000 mm 0,0 UV-I 0 W/m 9,2 C 11,3 C 0,0 km/h (0 Bft) 0,00 %
21.06.2015 22:55 11,3 C 87 % 1017,2 hPa 0,0 l/m 0,0 km/h (0 Bft) SO 138 0 min 0,000 mm 0,0 UV-I 0 W/m 9,2 C 11,3 C 0,0 km/h (0 Bft) 0,00 %
21.06.2015 23:00 11,2 C 87 % 1017,3 hPa 0,0 l/m 0,0 km/h (0 Bft) SO 138 0 min 0,000 mm 0,0 UV-I 0 W/m 9,1 C 11,2 C 0,0 km/h (0 Bft) 0,00 %
21.06.2015 23:05 11,2 C 88 % 1017,3 hPa 0,0 l/m 0,0 km/h (0 Bft) SO 129 0 min 0,000 mm 0,0 UV-I 0 W/m 9,3 C 11,2 C 0,0 km/h (0 Bft) 0,00 %
21.06.2015 23:10 11,1 C 88 % 1017,1 hPa 0,0 l/m 0,0 km/h (0 Bft) SO 129 0 min 0,000 mm 0,0 UV-I 0 W/m 9,2 C 11,1 C 0,0 km/h (0 Bft) 0,00 %
21.06.2015 23:15 11,0 C 88 % 1017,1 hPa 0,0 l/m 0,0 km/h (0 Bft) SO 137 0 min 0,000 mm 0,0 UV-I 0 W/m 9,1 C 11,0 C 0,0 km/h (0 Bft) 0,00 %
21.06.2015 23:20 10,9 C 89 % 1017,1 hPa 0,0 l/m 0,0 km/h (0 Bft) SO 134 0 min 0,000 mm 0,0 UV-I 0 W/m 9,2 C 10,9 C 0,0 km/h (0 Bft) 0,00 %
21.06.2015 23:25 10,8 C 89 % 1017,2 hPa 0,0 l/m 0,0 km/h (0 Bft) SO 128 0 min 0,000 mm 0,0 UV-I 0 W/m 9,1 C 10,8 C 0,0 km/h (0 Bft) 0,00 %
21.06.2015 23:30 10,7 C 89 % 1017,2 hPa 0,0 l/m 0,0 km/h (0 Bft) SO 132 0 min 0,000 mm 0,0 UV-I 0 W/m 9,0 C 10,7 C 0,0 km/h (0 Bft) 0,00 %
21.06.2015 23:35 10,6 C 89 % 1017,1 hPa 0,0 l/m 0,0 km/h (0 Bft) S 173 0 min 0,000 mm 0,0 UV-I 0 W/m 8,9 C 10,6 C 0,0 km/h (0 Bft) 0,00 %
21.06.2015 23:40 10,5 C 90 % 1017,1 hPa 0,0 l/m 0,0 km/h (0 Bft) S 173 0 min 0,000 mm 0,0 UV-I 0 W/m 8,9 C 10,5 C 0,0 km/h (0 Bft) 0,00 %
21.06.2015 23:45 10,5 C 90 % 1017,2 hPa 0,0 l/m 0,0 km/h (0 Bft) S 173 0 min 0,000 mm 0,0 UV-I 0 W/m 8,9 C 10,5 C 0,0 km/h (0 Bft) 0,00 %
21.06.2015 23:50 10,4 C 90 % 1017,1 hPa 0,0 l/m 0,0 km/h (0 Bft) S 173 0 min 0,000 mm 0,0 UV-I 0 W/m 8,8 C 10,4 C 0,0 km/h (0 Bft) 0,00 %
21.06.2015 23:55 10,4 C 90 % 1017,1 hPa 0,0 l/m 0,0 km/h (0 Bft) S 173 0 min 0,000 mm 0,0 UV-I 0 W/m 8,8 C 10,4 C 0,0 km/h (0 Bft) 0,00 %
_ Min-Zeit 05:10 14:55 18:15 - 00:00 - - - - - - 13:20 01:15 00:00 00:00
Minimum _ 9,4 C 52 % 1016,6 hPa - 0,0 km/h (0 Bft) - - - - - - 6,6 C 7,9 C 0,0 km/h (0 Bft) 0,00 %
_ Max-Zeit 13:55 05:00 00:10 00:00 14:55 - - 10:05 00:00 12:40 13:15 21:10 13:55 00:45 00:00
Maximum _ 17,9 C 92 % 1020,1 hPa 0,0 l/m 9,7 km/h
W (2 Bft)
- - 5 min 0,000 mm 7,0 UV-I 1007 W/m 10,0 C 17,9 C 11,9 km/h
W-SW (2 Bft)
0,00 %
Durchschnitt _ 12,8 C 76 % 1018,2 hPa #0,0 l/m 1,0 km/h (0 Bft) W-SW - #1:00 h #0,000 mm 1,5 UV-I 204 W/m 8,4 C 12,8 C 2,5 km/h (1 Bft) 0,00 %